This demonstration page uses our WeatherBlox Daily Observations layout. Learn more.

Left ArrowRight Arrow

Hourly Observations for December 5, 2017

Temp ( °F °C ) Dew Point ( °F °C ) Humidity (%) Winds ( mph kmh ) Pressure ( in mb ) Visibility ( mi km ) Precip ( " mm )
12:53 am 00:53 Cloudy 58 14.4 52 11.1 81 81 ESE 6 9 30.19 1022 10 16 0.00 0.00
1:53 am 01:53 Cloudy 57 13.9 52 11.1 83 83 Calm 30.20 1023 10 16 0.00 0.00
2:53 am 02:53 Cloudy 58 14.4 53 11.7 84 84 Calm 30.19 1023 10 16 0.00 0.00
3:07 am 03:07 Cloudy 58 14.4 53 11.7 84 84 Calm 30.18 1022 10 16 0.00 0.00
3:53 am 03:53 Cloudy 58 14.4 55 12.8 90 90 SSE 6 9 30.19 1022 10 16 0.00 0.00
4:00 am 04:00 Cloudy 58 14.4 55 12.8 90 90 VRB 3 6 30.18 1022 10 16 0.00 0.00
4:53 am 04:53 Cloudy 58 14.4 56 13.3 93 93 S 6 9 30.19 1022 10 16 0.00 0.00
5:53 am 05:53 Cloudy 58 14.4 56 13.3 93 93 SE 6 9 30.17 1022 9 14 0.00 0.00
6:53 am 06:53 Cloudy 58 14.4 57 13.9 97 97 Calm 30.18 1022 10 16 0.00 0.00
7:53 am 07:53 Cloudy 59 15 57 13.9 93 93 S 6 9 30.18 1022 10 16 0.00 0.00
8:53 am 08:53 Cloudy 60 15.6 58 14.4 93 93 S 9 15 30.16 1021 10 16 0.00 0.00
9:29 am 09:29 Cloudy 62 16.7 58 14.4 86 86 SSW 6 9 30.18 1022 10 16 0.00 0.00
9:50 am 09:50 Mostly Cloudy 63 17 57 14 83 83 S 6 9 30.18 1022 10 16 0.00 0.00
9:53 am 09:53 Mostly Cloudy 62 16.7 58 14.4 86 86 S 8 13 30.17 1022 10 16 0.00 0.00
10:14 am 10:14 Cloudy 63 17.2 59 15 87 87 SSW 5 7 30.18 1022 10 16 0.00 0.00
10:53 am 10:53 Cloudy 64 17.8 59 15 84 84 VRB 3 6 30.16 1021 10 16 0.00 0.00
10:59 am 10:59 Mostly Cloudy 64 17.8 59 15 84 84 S 6 9 30.15 1021 10 16 0.00 0.00
11:53 am 11:53 Mostly Cloudy 65 18.3 59 15 81 81 SSW 12 19 30.12 1020 10 16 0.00 0.00
12:53 pm 12:53 Mostly Cloudy 66 18.9 60 15.6 81 81 S 6 9 30.09 1019 10 16 0.00 0.00
1:53 pm 13:53 Partly Cloudy 67 19.4 60 15.6 79 79 S 9 15 30.06 1018 10 16 0.00 0.00
2:53 pm 14:53 Partly Cloudy 69 20.6 61 16.1 76 76 SSW 9 15 30.03 1017 10 16 0.00 0.00
3:53 pm 15:53 Mostly Cloudy 70 21.1 61 16.1 73 73 SSW 13 20 30.01 1016 10 16 0.00 0.00
4:07 pm 16:07 Mostly Cloudy 70 21.1 61 16.1 73 73 SSW 9 15 30.00 1016 10 16 0.00 0.00
4:51 pm 16:51 Mostly Cloudy 61 16 54 12 77 77 NW 20 31 30.09 1019 10 16 0.00 0.00
4:53 pm 16:53 Cloudy with Light Rain 60 15.6 54 12.2 80 80 NW 15 24 30.07 1018 8 13 0.00 0.03
5:53 pm 17:53 Cloudy with Light Rain 57 13.9 56 13.3 96 96 NNW 5 7 30.09 1019 8 13 0.04 1.02
6:53 pm 18:53 Cloudy with Rain 56 13.3 56 13.3 100 100 Calm 30.09 1019 8 13 0.07 1.78
7:01 pm 19:01 Cloudy with Rain 56 13.3 55 12.8 97 97 Calm 30.09 1019 5 8 0.03 0.76
7:53 pm 19:53 Cloudy with Light Rain 56 13.3 56 13.3 100 100 Calm 30.07 1018 10 16 0.06 1.52
8:20 pm 20:20 Cloudy with Light Rain 55 12.8 55 12.8 100 100 WNW 5 7 30.09 1019 10 16 0.00 0.03
8:28 pm 20:28 Cloudy with Light Rain 56 13.3 56 13.3 100 100 WNW 5 7 30.09 1019 10 16 0.00 0.03
8:53 pm 20:53 Cloudy with Light Rain 55 12.8 55 12.8 100 100 NNW 3 6 30.09 1019 8 13 0.02 0.51
9:53 pm 21:53 Cloudy with Light Rain 55 12.8 55 12.8 100 100 WSW 3 6 30.08 1019 10 16 0.01 0.25
10:53 pm 22:53 Cloudy with Light Rain 55 12.8 55 12.8 100 100 W 3 6 30.10 1019 10 16 0.01 0.25
11:39 pm 23:39 Cloudy 55 12.8 55 12.8 100 100 NW 6 9 30.09 1019 10 16 0.00 0.03
11:53 pm 23:53 Mostly Cloudy 55 12.8 55 12.8 100 100 NW 5 7 30.08 1019 10 16 0.00 0.03

Powered by AerisWeather